Location: Bryzozowice
(50.3667°N, 18.9667°E)
Time: 21:42:56
(UTC+00:00)

Cosmos 1125 Rocket - Pass Details

Date: 24 January 2020
Orbit: 757 x 780 km, 74.0° (Epoch: 17 February)

Event Time Altitude Azimuth Distance (km) Brightness Sun altitude
Rises 16:17:38 0° 206° (SSW) 3,203 7.5 -8.8°
Reaches altitude 10° 16:20:00 10° 208° (SSW) 2,283 6.7 -9.1°
Maximum altitude 16:25:10 78° 294° (WNW) 784 3.7 -9.9°
Drops below altitude 10° 16:30:25 10° 22° (NNE) 2,309 5.6 -10.7°
Enters shadow 16:32:26 - 24° (NNE) 3,088 6.2 -11.0°
